DW0935 Weather Reports


time (UTC)temp
C
wind
direction
speed
KPH
gust
KPH
rain 1hr
cm
rain 24hr
cm
rain mn
cm
humidity
%
barometer
mb
20260508004549 8 252 11.3 16.1 0.00 0.00 0.00 84 1006.8
20260508003044 9 231 8.0 12.9 0.00 0.00 0.00 83 1006.6
20260508001548 9 247 9.7 16.1 0.00 0.00 0.00 82 1006.5
20260508000043 10 247 9.7 16.1 0.00 0.00 0.00 80 1006.7
20260507234543 10 225 14.5 25.7 0.00 0.00 0.00 77 1006.6
20260507233056 11 263 14.5 22.5 0.00 0.00 0.00 71 1006.7
20260507231540 11 252 12.9 19.3 0.00 0.00 0.00 73 1006.1
20260507230040 11 250 14.5 27.4 0.00 0.00 0.00 72 1006.0
20260507224548 12 256 16.1 27.4 0.00 0.00 0.00 72 1006.3
20260507223038 12 262 12.9 25.7 0.00 0.00 0.00 76 1006.1
20260507221538 11 218 12.9 22.5 0.00 0.00 0.00 80 1006.1
20260507220037 10 252 12.9 20.9 0.00 0.00 0.00 82 1006.3
20260507214536 10 241 12.9 27.4 0.00 0.00 0.00 81 1006.5
20260507213040 10 254 16.1 24.1 0.00 0.00 0.00 80 1006.5
20260507211535 11 242 12.9 24.1 0.00 0.00 0.00 82 1006.5
20260507210043 11 220 12.9 22.5 0.00 0.00 0.00 83 1006.4
20260507204534 11 241 9.7 20.9 0.00 0.00 0.00 83 1006.1
20260507203039 11 252 12.9 22.5 0.00 0.00 0.00 82 1006.2
20260507201537 12 225 11.3 27.4 0.00 0.00 0.00 81 1006.1
20260507200033 12 227 16.1 27.4 0.00 0.00 0.00 78 1005.9
20260507194559 13 237 14.5 30.6 0.00 0.00 0.00 79 1006.0
20260507193034 13 239 11.3 24.1 0.00 0.00 0.00 78 1006.2
20260507191533 14 156 9.7 22.5 0.00 0.00 0.00 76 1006.6
20260507190025 14 289 11.3 17.7 0.00 0.00 0.00 77 1006.6
20260507184533 13 200 8.0 20.9 0.00 0.00 0.00 79 1006.9
20260507183035 13 154 1.6 16.1 0.00 0.00 0.00 75 1007.0
20260507181521 13 270 14.5 20.9 0.00 0.00 0.00 73 1007.0
20260507180029 13 313 11.3 19.3 0.00 0.00 0.00 73 1007.4
20260507174518 12 302 9.7 19.3 0.00 0.00 0.00 77 1007.5
20260507173029 12 266 8.0 16.1 0.00 0.00 0.00 76 1007.8
20260507171530 12 305 8.0 20.9 0.00 0.00 0.00 77 1007.7
20260507170013 12 284 12.9 17.7 0.00 0.00 0.00 78 1007.9
20260507164510 12 279 12.9 19.3 0.00 0.00 0.00 81 1008.1
20260507163010 11 323 11.3 19.3 0.00 0.00 0.00 79 1008.0
20260507161507 12 308 11.3 16.1 0.00 0.00 0.00 83 1008.3
20260507160006 11 289 11.3 19.3 0.00 0.00 0.00 85 1008.3
20260507154506 10 326 9.7 17.7 0.00 0.00 0.00 87 1008.5
20260507153003 10 322 9.7 22.5 0.00 0.00 0.00 91 1008.2
20260507151503 10 329 11.3 19.3 0.00 0.00 0.00 92 1008.4
20260507150002 10 306 8.0 24.1 0.00 0.00 0.00 94 1008.8
20260507144603 9 310 14.5 20.9 0.00 0.00 0.00 94 1008.7
20260507143125 9 315 12.9 24.1 0.00 0.00 0.00 94 1008.4
20260507141634 9 325 16.1 22.5 0.00 0.00 0.00 95 1008.4
20260507140055 9 291 14.5 24.1 0.00 0.00 0.00 96 1008.5
20260507134602 9 330 16.1 25.7 0.00 0.00 0.00 96 1008.0
20260507133056 9 343 11.3 20.9 0.00 0.00 0.00 97 1007.9
20260507131553 9 331 12.9 24.1 0.00 0.00 0.00 97 1008.1
20260507130052 9 331 16.1 22.5 0.00 0.00 0.00 97 1008.3
20260507124551 9 311 20.9 29.0 0.00 0.00 0.00 96 1008.1
20260507123049 9 327 17.7 29.0 0.00 0.00 0.00 97 1007.9
20260507121546 9 339 17.7 27.4 0.00 0.00 0.00 98 1007.8
20260507120053 9 345 14.5 24.1 0.00 0.00 0.00 98 1008.1
20260507114545 9 347 17.7 25.7 0.00 0.00 0.00 98 1008.4
20260507113048 9 322 12.9 24.1 0.00 0.00 0.00 98 1007.7
20260507111540 10 322 17.7 33.8 0.00 0.00 0.00 98 1007.7
20260507110038 11 296 17.7 29.0 0.00 0.00 0.00 99 1007.5
20260507104536 11 308 9.7 17.7 0.00 0.00 0.00 99 1006.8
20260507103036 11 272 9.7 16.1 0.00 0.00 0.00 99 1006.7
20260507101535 11 260 8.0 17.7 0.00 0.00 0.00 99 1006.9
20260507100037 11 262 19.3 30.6 0.00 0.00 0.00 99 1007.3
20260507094534 11 252 9.7 17.7 0.00 0.00 0.00 99 1006.4
20260507093033 11 273 11.3 17.7 0.00 0.00 0.00 99 1006.5
20260507091531 10 253 16.1 25.7 0.00 0.00 0.00 99 1006.7
20260507090029 10 252 11.3 24.1 0.00 0.00 0.00 99 1006.5
20260507084528 10 238 12.9 27.4 0.00 0.00 0.00 99 1006.0
20260507083025 10 247 12.9 25.7 0.00 0.00 0.00 99 1006.3
20260507081531 11 259 14.5 25.7 0.00 0.00 0.00 99 1006.5
20260507080022 11 256 17.7 27.4 0.00 0.00 0.00 99 1006.4
20260507074528 11 220 16.1 25.7 0.00 0.00 0.00 99 1006.6
20260507073137 11 220 17.7 30.6 0.00 0.00 0.00 99 1007.1
20260507071517 11 231 22.5 33.8 0.00 0.00 0.00 98 1007.2
20260507070014 11 258 25.7 37.0 0.00 0.00 0.00 98 1007.2
20260507064511 11 266 17.7 35.4 0.00 0.00 0.00 98 1007.2
20260507063008 11 181 19.3 35.4 0.00 0.00 0.00 98 1006.9
20260507061509 11 227 19.3 35.4 0.00 0.00 0.00 98 1006.9
20260507060005 11 247 20.9 38.6 0.00 0.00 0.00 98 1007.1
20260507054501 11 249 24.1 38.6 0.00 0.00 0.00 98 1007.4
20260507053059 11 250 19.3 43.5 0.00 0.00 0.00 98 1007.7
20260507051556 11 235 25.7 41.8 0.00 0.00 0.00 98 1007.7
20260507050057 11 216 27.4 48.3 0.00 0.00 0.00 98 1007.9
20260507044552 11 238 22.5 38.6 0.00 0.00 0.00 98 1008.1
20260507043049 12 252 24.1 37.0 0.00 0.00 0.00 98 1008.2
20260507041547 12 231 24.1 46.7 0.00 0.00 0.00 98 1008.4
20260507040041 12 212 24.1 46.7 0.00 0.00 0.00 98 1008.4
20260507034546 12 214 24.1 46.7 0.00 0.00 0.00 98 1008.6
20260507033057 12 206 22.5 45.1 0.00 0.00 0.00 98 1008.6
20260507031538 12 207 24.1 38.6 0.00 0.00 0.00 98 1008.7
20260507030038 12 212 27.4 49.9 0.00 0.00 0.00 98 1008.7
20260507024541 12 241 27.4 57.9 0.00 0.00 0.00 98 1008.8
20260507023034 12 217 27.4 45.1 0.00 0.00 0.00 98 1009.0
20260507021533 12 231 17.7 45.1 0.00 0.00 0.00 97 1009.0
20260507020033 12 211 32.2 57.9 0.00 0.00 0.00 97 1009.4
20260507014531 12 227 25.7 57.9 0.00 0.00 0.00 97 1009.7
20260507013036 12 203 37.0 53.1 0.00 0.00 0.00 98 1009.4
20260507011533 11 240 29.0 54.7 0.00 0.00 0.00 97 1009.6
20260507010130 12 183 30.6 49.9 0.00 0.00 0.00 97 1009.5